BAW970 EGLL-EDDH

Flight info

Callsign BAW970
Flight time 1h 10m
Altitude 37000
Route BPK Q295 SOMVA DCT MAVAS DCT GASTU DCT OSTOR/N0369F230 T904 RIBSO RIBSO7A
Aircraft A320/M-L/LB1

Departure

Time 2026-05-07 20:47
Airport London Heathrow Airport (EGLL)

Arrival

Time 2026-05-07 21:57
Airport Hamburg Helmut Schmidt Airport (EDDH)
Time Latitude Longitude Altitude Speed Heading
2026-05-07 20:30 51.47187 -0.48602 87 ft 0 kts 269°
2026-05-07 20:37 51.47187 -0.48601 87 ft 0 kts 269°
2026-05-07 20:39 51.47187 -0.48588 85 ft 4 kts 269°
2026-05-07 20:39 51.47187 -0.48551 87 ft 2 kts 270°
2026-05-07 20:40 51.47189 -0.48511 89 ft 4 kts 254°
2026-05-07 20:40 51.47200 -0.48479 89 ft 4 kts 200°
2026-05-07 20:40 51.47216 -0.48475 89 ft 0 kts 179°
2026-05-07 20:41 51.47217 -0.48475 89 ft 0 kts 179°
2026-05-07 20:42 51.47216 -0.48475 89 ft 0 kts 179°
2026-05-07 20:42 51.47201 -0.48476 88 ft 3 kts 181°
2026-05-07 20:42 51.47150 -0.48476 86 ft 12 kts 180°
2026-05-07 20:43 51.47049 -0.48474 85 ft 16 kts 179°
2026-05-07 20:43 51.46963 -0.48473 85 ft 13 kts 178°
2026-05-07 20:43 51.46895 -0.48471 87 ft 11 kts 180°
2026-05-07 20:43 51.46813 -0.48472 86 ft 13 kts 180°
2026-05-07 20:44 51.46763 -0.48472 88 ft 1 kts 179°
2026-05-07 20:44 51.46740 -0.48533 85 ft 14 kts 268°
2026-05-07 20:44 51.46732 -0.48704 85 ft 16 kts 253°
2026-05-07 20:44 51.46652 -0.48751 86 ft 12 kts 179°
2026-05-07 20:45 51.46554 -0.48788 87 ft 17 kts 186°
2026-05-07 20:45 51.46477 -0.48690 86 ft 15 kts 101°
2026-05-07 20:45 51.46477 -0.48648 88 ft 0 kts 87°
2026-05-07 20:46 51.46478 -0.48513 86 ft 41 kts 89°
2026-05-07 20:46 51.46481 -0.47691 82 ft 103 kts 89°
2026-05-07 20:46 51.46486 -0.46266 90 ft 150 kts 89°
2026-05-07 20:46 51.46500 -0.44517 553 ft 154 kts 90°
2026-05-07 20:47 51.46501 -0.42828 1206 ft 154 kts 92°
2026-05-07 20:47 51.46680 -0.41107 1639 ft 166 kts 68°
2026-05-07 20:47 51.47385 -0.39475 1885 ft 191 kts 52°
2026-05-07 20:47 51.48268 -0.37760 2252 ft 205 kts 52°
2026-05-07 20:48 51.49208 -0.35907 2608 ft 224 kts 52°
2026-05-07 20:48 51.50223 -0.33890 3147 ft 237 kts 52°
2026-05-07 20:48 51.51299 -0.31750 3723 ft 254 kts 52°
2026-05-07 20:48 51.52358 -0.29442 4561 ft 260 kts 63°
2026-05-07 20:49 51.53017 -0.26728 5436 ft 263 kts 69°
2026-05-07 20:49 51.53956 -0.24163 5864 ft 270 kts 53°
2026-05-07 20:49 51.55106 -0.21779 5990 ft 270 kts 52°
2026-05-07 20:49 51.56274 -0.19418 6004 ft 270 kts 51°
2026-05-07 20:50 51.57445 -0.17061 6007 ft 270 kts 51°
2026-05-07 20:50 51.58620 -0.14690 6008 ft 271 kts 52°
2026-05-07 20:50 51.59398 -0.13117 6008 ft 271 kts 52°
2026-05-07 20:50 51.60566 -0.10742 6008 ft 271 kts 52°
2026-05-07 20:51 51.61736 -0.08357 6008 ft 271 kts 52°
2026-05-07 20:51 51.62903 -0.05971 6006 ft 271 kts 52°
2026-05-07 20:51 51.64072 -0.03577 6005 ft 271 kts 52°
2026-05-07 20:51 51.65237 -0.01189 6006 ft 271 kts 52°
2026-05-07 20:52 51.66416 0.01230 6487 ft 276 kts 52°
2026-05-07 20:52 51.67600 0.03663 7387 ft 277 kts 52°
2026-05-07 20:52 51.68785 0.06105 8187 ft 283 kts 52°
2026-05-07 20:52 51.70009 0.08631 8942 ft 289 kts 52°
2026-05-07 20:53 51.71260 0.11212 9776 ft 293 kts 52°
2026-05-07 20:53 51.72533 0.13840 10362 ft 305 kts 52°
2026-05-07 20:53 51.73889 0.16640 10582 ft 328 kts 52°
2026-05-07 20:53 51.75324 0.19610 11029 ft 340 kts 52°
2026-05-07 20:54 51.76728 0.22723 11649 ft 345 kts 59°
2026-05-07 20:54 51.77764 0.26230 12350 ft 348 kts 72°
2026-05-07 20:54 51.78339 0.30035 13041 ft 350 kts 84°
2026-05-07 20:54 51.78645 0.33959 13745 ft 353 kts 84°
2026-05-07 20:55 51.78956 0.37911 14377 ft 357 kts 84°
2026-05-07 20:55 51.79274 0.41904 14905 ft 361 kts 84°
2026-05-07 20:55 51.79598 0.45939 15065 ft 362 kts 84°
2026-05-07 20:55 51.79921 0.49973 15101 ft 362 kts 84°
2026-05-07 20:56 51.80240 0.54017 15104 ft 363 kts 84°
2026-05-07 20:56 51.80556 0.58060 15102 ft 363 kts 84°
2026-05-07 20:56 51.80869 0.62049 15105 ft 362 kts 84°
2026-05-07 20:56 51.81402 0.66034 15104 ft 363 kts 73°
2026-05-07 20:57 51.82349 0.69860 15475 ft 368 kts 68°
2026-05-07 20:57 51.83351 0.73675 16131 ft 370 kts 68°
2026-05-07 20:57 51.84350 0.77534 16737 ft 373 kts 68°
2026-05-07 20:57 51.85351 0.81431 17341 ft 377 kts 68°
2026-05-07 20:58 51.86358 0.85370 17941 ft 380 kts 68°
2026-05-07 20:58 51.87373 0.89338 18514 ft 384 kts 68°
2026-05-07 20:58 51.88398 0.93345 19050 ft 387 kts 68°
2026-05-07 20:58 51.89435 0.97385 19590 ft 390 kts 68°
2026-05-07 20:59 51.90481 1.01464 20138 ft 394 kts 68°
2026-05-07 20:59 51.91534 1.05581 20678 ft 397 kts 68°
2026-05-07 20:59 51.92595 1.09734 21201 ft 401 kts 68°
2026-05-07 20:59 51.93663 1.13922 21716 ft 404 kts 68°
2026-05-07 21:00 51.94740 1.18152 22224 ft 408 kts 68°
2026-05-07 21:00 51.95826 1.22417 22732 ft 411 kts 68°
2026-05-07 21:00 51.96922 1.26719 23235 ft 415 kts 68°
2026-05-07 21:00 51.98026 1.31068 23719 ft 418 kts 68°
2026-05-07 21:01 51.99131 1.35448 24134 ft 421 kts 68°
2026-05-07 21:01 52.00242 1.39865 24551 ft 424 kts 68°
2026-05-07 21:01 52.01357 1.44310 24957 ft 427 kts 68°
2026-05-07 21:01 52.02477 1.48784 25356 ft 429 kts 68°
2026-05-07 21:02 52.03605 1.53289 25754 ft 432 kts 68°
2026-05-07 21:02 52.04741 1.57823 26139 ft 435 kts 67°
2026-05-07 21:02 52.05870 1.62339 26517 ft 437 kts 68°
2026-05-07 21:02 52.07014 1.66931 26893 ft 440 kts 68°
2026-05-07 21:03 52.08163 1.71551 27257 ft 442 kts 68°
2026-05-07 21:03 52.09319 1.76206 27611 ft 445 kts 68°
2026-05-07 21:03 52.10477 1.80879 27973 ft 448 kts 68°
2026-05-07 21:03 52.11643 1.85596 28334 ft 450 kts 68°
2026-05-07 21:04 52.12812 1.90336 28686 ft 453 kts 68°
2026-05-07 21:04 52.13985 1.95109 29027 ft 455 kts 68°
2026-05-07 21:04 52.15160 1.99908 29376 ft 458 kts 68°
2026-05-07 21:04 52.16340 2.04733 29729 ft 460 kts 68°
2026-05-07 21:05 52.17526 2.09594 30075 ft 462 kts 68°
2026-05-07 21:05 52.18717 2.14482 30373 ft 465 kts 68°
2026-05-07 21:05 52.19912 2.19392 30659 ft 467 kts 68°
2026-05-07 21:05 52.21108 2.24323 31000 ft 467 kts 68°
2026-05-07 21:06 52.22297 2.29246 31418 ft 466 kts 68°
2026-05-07 21:06 52.23485 2.34170 31824 ft 466 kts 68°
2026-05-07 21:06 52.24669 2.39081 32235 ft 465 kts 68°
2026-05-07 21:06 52.25850 2.43990 32639 ft 465 kts 68°
2026-05-07 21:07 52.27011 2.48830 33109 ft 462 kts 69°
2026-05-07 21:07 52.28179 2.53712 33592 ft 460 kts 69°
2026-05-07 21:07 52.29343 2.58585 34017 ft 459 kts 69°
2026-05-07 21:07 52.30497 2.63448 34370 ft 459 kts 70°
2026-05-07 21:08 52.31442 2.68424 34685 ft 458 kts 74°
2026-05-07 21:08 52.32325 2.73429 34996 ft 458 kts 74°
2026-05-07 21:08 52.33208 2.78437 35306 ft 458 kts 74°
2026-05-07 21:08 52.34089 2.83440 35584 ft 458 kts 74°
2026-05-07 21:09 52.34969 2.88444 35867 ft 458 kts 74°
2026-05-07 21:09 52.35845 2.93453 36145 ft 458 kts 75°
2026-05-07 21:09 52.36718 2.98466 36412 ft 458 kts 75°
2026-05-07 21:09 52.37573 3.03408 36687 ft 457 kts 75°
2026-05-07 21:10 52.38435 3.08416 36946 ft 457 kts 75°
2026-05-07 21:10 52.39295 3.13430 37099 ft 459 kts 75°
2026-05-07 21:10 52.40336 3.18380 37117 ft 461 kts 66°
2026-05-07 21:11 52.43048 3.27933 37115 ft 463 kts 65°
2026-05-07 21:11 52.47097 3.42315 37114 ft 463 kts 65°
2026-05-07 21:12 52.49776 3.51904 37111 ft 461 kts 66°
2026-05-07 21:12 52.52446 3.61493 37123 ft 462 kts 66°
2026-05-07 21:13 52.55108 3.71087 37125 ft 462 kts 66°
2026-05-07 21:13 52.57766 3.80714 37130 ft 462 kts 66°
2026-05-07 21:14 52.60414 3.90346 37135 ft 462 kts 66°
2026-05-07 21:14 52.63041 3.99929 37136 ft 462 kts 66°
2026-05-07 21:15 52.65678 4.09580 37138 ft 462 kts 66°
2026-05-07 21:15 52.68302 4.19255 37141 ft 462 kts 66°
2026-05-07 21:16 52.70919 4.28947 37141 ft 462 kts 66°
2026-05-07 21:16 52.73535 4.38643 37142 ft 462 kts 66°
2026-05-07 21:17 52.76132 4.48320 37126 ft 461 kts 66°
2026-05-07 21:17 52.78716 4.58007 37128 ft 461 kts 66°
2026-05-07 21:18 52.81295 4.67698 37128 ft 460 kts 67°
2026-05-07 21:18 52.83862 4.77395 37154 ft 460 kts 67°
2026-05-07 21:19 52.86402 4.87040 37156 ft 460 kts 67°
2026-05-07 21:19 52.88950 4.96758 37153 ft 460 kts 67°
2026-05-07 21:20 52.91496 5.06484 37154 ft 460 kts 67°
2026-05-07 21:20 52.94029 5.16202 37148 ft 459 kts 67°
2026-05-07 21:21 52.96551 5.25922 37143 ft 459 kts 67°
2026-05-07 21:21 52.99059 5.35659 37147 ft 458 kts 68°
2026-05-07 21:22 53.01564 5.45385 37145 ft 458 kts 67°
2026-05-07 21:22 53.04057 5.55123 37133 ft 458 kts 68°
2026-05-07 21:23 53.06540 5.64881 37149 ft 458 kts 68°
2026-05-07 21:23 53.09002 5.74593 37149 ft 458 kts 68°
2026-05-07 21:24 53.11477 5.84373 37164 ft 458 kts 68°
2026-05-07 21:24 53.13941 5.94150 37161 ft 457 kts 68°
2026-05-07 21:25 53.16386 6.03928 37164 ft 457 kts 68°
2026-05-07 21:25 53.18816 6.13711 37149 ft 457 kts 68°
2026-05-07 21:26 53.21242 6.23495 37143 ft 456 kts 68°
2026-05-07 21:26 53.23670 6.33281 37152 ft 456 kts 68°
2026-05-07 21:27 53.26083 6.43082 37154 ft 456 kts 68°
2026-05-07 21:27 53.28481 6.52889 37149 ft 456 kts 68°
2026-05-07 21:28 53.30878 6.62717 37156 ft 456 kts 68°
2026-05-07 21:28 53.33260 6.72548 37143 ft 456 kts 69°
2026-05-07 21:29 53.35637 6.82402 37142 ft 456 kts 69°
2026-05-07 21:29 53.38007 6.92260 37149 ft 456 kts 69°
2026-05-07 21:30 53.40358 7.02067 37164 ft 456 kts 69°
2026-05-07 21:30 53.41535 7.06996 36680 ft 455 kts 69°
2026-05-07 21:30 53.42719 7.11973 35155 ft 464 kts 69°
2026-05-07 21:31 53.43912 7.17010 34078 ft 461 kts 69°
2026-05-07 21:31 53.45074 7.21925 33581 ft 443 kts 69°
2026-05-07 21:31 53.46192 7.26645 33091 ft 428 kts 69°
2026-05-07 21:31 53.47273 7.31208 32610 ft 414 kts 69°
2026-05-07 21:32 53.48317 7.35632 32135 ft 401 kts 69°
2026-05-07 21:32 53.49326 7.39930 31686 ft 390 kts 69°
2026-05-07 21:32 53.50313 7.44148 31244 ft 388 kts 69°
2026-05-07 21:32 53.51294 7.48361 30798 ft 385 kts 69°
2026-05-07 21:33 53.52264 7.52527 30383 ft 382 kts 69°
2026-05-07 21:33 53.53237 7.56691 29902 ft 383 kts 69°
2026-05-07 21:33 53.54206 7.60856 29477 ft 382 kts 69°
2026-05-07 21:33 53.55168 7.65003 29048 ft 380 kts 69°
2026-05-07 21:34 53.56127 7.69143 28639 ft 379 kts 69°
2026-05-07 21:34 53.57083 7.73266 28230 ft 377 kts 69°
2026-05-07 21:34 53.58029 7.77369 27830 ft 376 kts 69°
2026-05-07 21:34 53.58957 7.81401 27444 ft 374 kts 69°
2026-05-07 21:35 53.59907 7.85526 27040 ft 371 kts 69°
2026-05-07 21:35 53.60821 7.89511 26672 ft 369 kts 70°
2026-05-07 21:35 53.61737 7.93529 26296 ft 366 kts 69°
2026-05-07 21:35 53.62648 7.97528 25923 ft 364 kts 69°
2026-05-07 21:36 53.63552 8.01506 25537 ft 362 kts 70°
2026-05-07 21:36 53.64384 8.05494 25155 ft 360 kts 72°
2026-05-07 21:36 53.65154 8.09493 24761 ft 358 kts 73°
2026-05-07 21:36 53.65894 8.13490 24368 ft 357 kts 73°
2026-05-07 21:37 53.66622 8.17482 23965 ft 355 kts 73°
2026-05-07 21:37 53.67352 8.21462 23526 ft 355 kts 73°
2026-05-07 21:37 53.68091 8.25418 23096 ft 353 kts 73°
2026-05-07 21:37 53.68832 8.29343 22674 ft 350 kts 73°
2026-05-07 21:38 53.69574 8.33249 22263 ft 348 kts 73°
2026-05-07 21:38 53.70312 8.37133 21839 ft 347 kts 72°
2026-05-07 21:38 53.71043 8.40995 21424 ft 345 kts 73°
2026-05-07 21:38 53.71525 8.43545 21149 ft 344 kts 72°
2026-05-07 21:39 53.72252 8.47390 20732 ft 343 kts 72°
2026-05-07 21:39 53.73205 8.52463 20175 ft 342 kts 73°
2026-05-07 21:39 53.73921 8.56289 19754 ft 341 kts 72°
2026-05-07 21:39 53.74633 8.60105 19336 ft 340 kts 72°
2026-05-07 21:40 53.75343 8.63916 18916 ft 340 kts 73°
2026-05-07 21:40 53.75821 8.66490 18630 ft 340 kts 73°
2026-05-07 21:40 53.76530 8.70300 18177 ft 340 kts 73°
2026-05-07 21:40 53.77224 8.74053 17743 ft 338 kts 73°
2026-05-07 21:41 53.77918 8.77839 17330 ft 336 kts 73°
2026-05-07 21:41 53.78610 8.81599 16907 ft 334 kts 73°
2026-05-07 21:41 53.79300 8.85342 16498 ft 332 kts 73°
2026-05-07 21:41 53.79986 8.89066 16081 ft 331 kts 73°
2026-05-07 21:42 53.80668 8.92779 15658 ft 330 kts 73°
2026-05-07 21:42 53.81344 8.96480 15239 ft 328 kts 73°
2026-05-07 21:42 53.82012 9.00144 14835 ft 327 kts 73°
2026-05-07 21:42 53.82630 9.03848 14420 ft 327 kts 79°
2026-05-07 21:43 53.82808 9.07661 14018 ft 325 kts 93°
2026-05-07 21:43 53.82603 9.11468 13568 ft 324 kts 96°
2026-05-07 21:43 53.82379 9.15248 13158 ft 322 kts 96°
2026-05-07 21:43 53.82159 9.19011 12738 ft 320 kts 96°
2026-05-07 21:44 53.81942 9.22740 12341 ft 318 kts 96°
2026-05-07 21:44 53.81724 9.26449 11949 ft 316 kts 96°
2026-05-07 21:44 53.81505 9.30137 11546 ft 314 kts 97°
2026-05-07 21:44 53.81044 9.33733 11152 ft 312 kts 110°
2026-05-07 21:45 53.80105 9.36987 10883 ft 305 kts 123°
2026-05-07 21:45 53.78862 9.39838 10610 ft 299 kts 135°
2026-05-07 21:45 53.77186 9.41846 10291 ft 294 kts 156°
2026-05-07 21:45 53.75226 9.42747 10031 ft 289 kts 169°
2026-05-07 21:46 53.73299 9.43371 9879 ft 272 kts 168°
2026-05-07 21:46 53.71519 9.43954 9704 ft 255 kts 168°
2026-05-07 21:46 53.69796 9.44518 9352 ft 251 kts 168°
2026-05-07 21:46 53.68093 9.45079 9076 ft 248 kts 168°
2026-05-07 21:47 53.66396 9.45633 8795 ft 247 kts 168°
2026-05-07 21:47 53.64711 9.46173 8507 ft 246 kts 168°
2026-05-07 21:47 53.63032 9.46705 8218 ft 245 kts 167°
2026-05-07 21:47 53.61426 9.47599 7926 ft 243 kts 155°
2026-05-07 21:48 53.59873 9.48733 7614 ft 243 kts 154°
2026-05-07 21:48 53.58332 9.49881 7331 ft 242 kts 154°
2026-05-07 21:48 53.56796 9.51018 7051 ft 241 kts 154°
2026-05-07 21:48 53.55282 9.52129 6777 ft 239 kts 154°
2026-05-07 21:49 53.53775 9.53222 6588 ft 229 kts 154°
2026-05-07 21:49 53.52361 9.54232 6460 ft 213 kts 154°
2026-05-07 21:49 53.51041 9.55165 6355 ft 200 kts 154°
2026-05-07 21:49 53.49794 9.56153 6051 ft 196 kts 143°
2026-05-07 21:50 53.48742 9.57571 5741 ft 193 kts 135°
2026-05-07 21:50 53.47755 9.59089 5427 ft 191 kts 134°
2026-05-07 21:50 53.46824 9.60666 5106 ft 188 kts 122°
2026-05-07 21:50 53.46436 9.62771 4611 ft 193 kts 94°
2026-05-07 21:51 53.46413 9.64955 4468 ft 181 kts 86°
2026-05-07 21:51 53.46918 9.66809 4236 ft 179 kts 46°
2026-05-07 21:51 53.47831 9.68230 3918 ft 179 kts 51°
2026-05-07 21:51 53.48621 9.69816 3624 ft 178 kts 53°
2026-05-07 21:52 53.49416 9.71422 3328 ft 177 kts 53°
2026-05-07 21:52 53.50206 9.73007 3052 ft 176 kts 53°
2026-05-07 21:52 53.50998 9.74594 3004 ft 177 kts 53°
2026-05-07 21:52 53.51786 9.76173 3008 ft 178 kts 53°
2026-05-07 21:53 53.52582 9.77768 2922 ft 175 kts 53°
2026-05-07 21:53 53.53352 9.79312 2738 ft 170 kts 53°
2026-05-07 21:53 53.54106 9.80826 2540 ft 167 kts 53°
2026-05-07 21:53 53.54857 9.82334 2304 ft 168 kts 53°
2026-05-07 21:54 53.55596 9.83820 2075 ft 168 kts 53°
2026-05-07 21:54 53.56344 9.85323 1844 ft 166 kts 53°
2026-05-07 21:54 53.57039 9.86717 1603 ft 146 kts 53°
2026-05-07 21:54 53.57671 9.87994 1342 ft 138 kts 53°
2026-05-07 21:55 53.58273 9.89230 1172 ft 136 kts 52°
2026-05-07 21:55 53.58888 9.90424 1070 ft 134 kts 53°
2026-05-07 21:55 53.59477 9.91621 904 ft 132 kts 53°
2026-05-07 21:55 53.60062 9.92816 712 ft 132 kts 52°
2026-05-07 21:56 53.60653 9.93999 498 ft 132 kts 51°
2026-05-07 21:56 53.61239 9.95186 319 ft 131 kts 51°
2026-05-07 21:56 53.61825 9.96370 155 ft 131 kts 50°
2026-05-07 21:56 53.62392 9.97519 42 ft 115 kts 50°
2026-05-07 21:57 53.62790 9.98325 44 ft 65 kts 51°
2026-05-07 21:57 53.62978 9.98708 44 ft 31 kts 50°
2026-05-07 21:57 53.63118 9.98986 46 ft 31 kts 50°
2026-05-07 21:57 53.63237 9.99232 47 ft 20 kts 52°
2026-05-07 21:58 53.63290 9.99422 46 ft 16 kts 80°
2026-05-07 21:58 53.63287 9.99550 44 ft 8 kts 98°
2026-05-07 21:58 53.63280 9.99625 44 ft 5 kts 99°
2026-05-07 21:58 53.63277 9.99657 45 ft 5 kts 99°
2026-05-07 21:59 53.63276 9.99669 45 ft 0 kts 99°
2026-05-07 22:00 53.63274 9.99693 45 ft 7 kts 99°
2026-05-07 22:00 53.63212 9.99771 43 ft 14 kts 152°
2026-05-07 22:00 53.63123 9.99848 45 ft 8 kts 153°
2026-05-07 22:01 53.63080 9.99885 43 ft 6 kts 153°
2026-05-07 22:01 53.63045 9.99915 45 ft 5 kts 153°
2026-05-07 22:01 53.63003 9.99951 45 ft 10 kts 153°
2026-05-07 22:01 53.62947 10.00055 46 ft 14 kts 82°
2026-05-07 22:02 53.62975 10.00160 46 ft 10 kts 53°
2026-05-07 22:02 53.63020 10.00209 46 ft 8 kts 31°
2026-05-07 22:02 53.63040 10.00229 42 ft 1 kts 32°
2026-05-07 22:02 53.63055 10.00246 46 ft 4 kts 32°
2026-05-07 22:03 53.63086 10.00260 46 ft 2 kts 358°
2026-05-07 22:03 53.63105 10.00261 43 ft 1 kts
2026-05-07 22:03 53.63114 10.00272 46 ft 1 kts 63°